Regional Weather Roundup
Issued by NWS

Home | Current Version | Previous Version | Graphics & Text | Print | Product List | Glossary On
Versions: 1 2 3 4 5 6 7 8 9 10 11 12 13 14 15 16 17 18 19 20 21 22 23 24 25 26 27 28 29 30 31 32 33 34 35 36 37 38 39 40 41 42 43 44 45 46 47 48 49 50
000
ASUS43 KOAX 240602
RWRNE

WEATHER ROUNDUP FOR NEBRASKA
NATIONAL WEATHER SERVICE OMAHA NE
100 AM CDT THU AUG 24 2017

NOTES: SATELLITE DATA IS BEING USED TO AUGMENT CLOUD COVER ABOVE
       12000 FEET.
       "FAIR" INDICATES FEW OR NO CLOUDS BELOW 12,000 FEET WITH NO
       SIGNIFICANT WEATHER AND/OR OBSTRUCTIONS TO VISIBILITY.


NEZ001>004-019>022-054>056-240700-
NEBRASKA PANHANDLE

CITY           SKY/WX    TMP DP  RH WIND       PRES   REMARKS
SCOTTSBLUFF    CLOUDY    68  51  54 SE13      30.04R
6HR MIN TEMP:  68; 6HR MAX TEMP:  84;

ALLIANCE       CLOUDY    62  56  80 CALM      30.00S
6HR MIN TEMP:  59; 6HR MAX TEMP:  84; 6HR PCP: TRACE;

CHADRON        CLOUDY    68  53  58 S9        29.96F
6HR MIN TEMP:  67; 6HR MAX TEMP:  88; 6HR PCP:  0.08;

GORDON         FAIR      68  57  69 N3        29.99R
6HR MIN TEMP:  67; 6HR MAX TEMP:  86; 6HR PCP:  0.25;

KIMBALL        CLEAR     66  46  48 CALM      30.10S
SIDNEY         CLEAR     62  52  69 SW10      30.04F
6HR MIN TEMP:  62; 6HR MAX TEMP:  85; 6HR PCP:  0.01;

$$

NEZ057>060-069>072-079>082-240700-
SOUTHWEST NEBRASKA

CITY           SKY/WX    TMP DP  RH WIND       PRES   REMARKS
NORTH PLATTE   CLEAR     70  48  45 SE8       30.00F
6HR MIN TEMP:  62; 6HR MAX TEMP:  81;

IMPERIAL       CLEAR     71  60  68 S16G22    30.00F
6HR MIN TEMP:  66; 6HR MAX TEMP:  86;

LEXINGTON      CLEAR     64  52  64 SE6       30.03R
MCCOOK         CLEAR     69  49  48 S10G18    30.02R
6HR MIN TEMP:  68; 6HR MAX TEMP:  83;

OGALLALA       CLEAR     69  60  73 SE3       30.00S
$$

NEZ005>010-023>029-035>040-094-240700-
NORTH CENTRAL NEBRASKA

CITY           SKY/WX    TMP DP  RH WIND       PRES   REMARKS
VALENTINE      CLOUDY    73  55  53 SW13      29.95R
6HR MIN TEMP:  73; 6HR MAX TEMP:  89;

AINSWORTH      CLOUDY    68  53  59 S12       29.96S
BROKEN BOW     CLEAR     67  52  58 S7        30.01S
6HR MIN TEMP:  66; 6HR MAX TEMP:  81;

O`NEILL        CLEAR     66  56  71 S9        29.97S
ORD            CLEAR     66  53  63 S10       29.99S
6HR MIN TEMP:  65; 6HR MAX TEMP:  78;

THEDFORD       PTCLDY    70  49  45 S16       29.98F
$$

NEZ041-046>049-061>064-073>077-083>087-240700-
SOUTH CENTRAL NEBRASKA

CITY           SKY/WX    TMP DP  RH WIND       PRES   REMARKS
GRAND ISLAND   CLEAR     65  55  70 S14       30.02S
6HR MIN TEMP:  64; 6HR MAX TEMP:  78;

AURORA         CLEAR     65  55  70 S12       30.02S
HASTINGS       CLEAR     64  53  67 S9        30.04S
6HR MIN TEMP:  64; 6HR MAX TEMP:  79;

HEBRON         CLEAR     65  55  72 S8        30.04F
HOLDREGE       CLEAR     62  51  68 S9        30.04S
KEARNEY        CLEAR     63  54  72 S12       30.03S
$$

NEZ011>018-030>034-042>045-240700-
NORTHEAST NEBRASKA

CITY           SKY/WX    TMP DP  RH WIND       PRES   REMARKS
NORFOLK        CLEAR     63  58  83 SE8       30.00R
6HR MIN TEMP:  63; 6HR MAX TEMP:  76;

ALBION         CLEAR     63  58  82 SE5       30.01R
BLAIR          CLOUDY    67  59  74 S8        30.04F
COLUMBUS       CLEAR     65  57  75 S9        30.02S
FREMONT        PTCLDY    66  57  72 SE9       30.03S
TEKAMAH        CLOUDY    63  60  90 SE3       30.02F
6HR MIN TEMP:  61; 6HR MAX TEMP:  75;

WAYNE          PTCLDY    62  60  91 S8        30.00F
$$

NEZ050>053-065>068-078-088>093-240700-
SOUTHEAST NEBRASKA

CITY           SKY/WX    TMP DP  RH WIND       PRES   REMARKS
LINCOLN        CLEAR     63  57  81 S9        30.04F
6HR MIN TEMP:  63; 6HR MAX TEMP:  77;

OMAHA EPPLEY   PTCLDY    66  58  75 SE7       30.05R
6HR MIN TEMP:  66; 6HR MAX TEMP:  78;

BEATRICE       CLEAR     65  57  75 S7        30.06S
FALLS CITY     CLEAR     61  59  93 SE3       30.06R
6HR MIN TEMP:  60; 6HR MAX TEMP:  75;

NEBRASKA CITY  CLOUDY    63  62  97 SW8       30.07R
PLATTSMOUTH    CLEAR     63  58  84 S7        30.06R
$$

NEZ044-045-051>053-067-240700-
OMAHA AREA

CITY           SKY/WX    TMP DP  RH WIND       PRES   REMARKS
OMAHA EPPLEY   PTCLDY    66  58  75 SE7       30.05R
6HR MIN TEMP:  66; 6HR MAX TEMP:  78;

BLAIR          CLOUDY    67  59  74 S8        30.04F
FREMONT        PTCLDY    66  57  72 SE9       30.03S
MILLARD        PTCLDY    66  60  78 SE3       30.05R
OFFUTT AFB     CLEAR     59  58  94 CALM      30.05R
PLATTSMOUTH    CLEAR     63  58  84 S7        30.06R
WAHOO          FAIR      61  59  94 SE6       30.04S
$$




USA.gov is the U.S. government's official web portal to all federal, state and local government web resources and services.